[[{"header":{"parameterUnit":"m.s-1","parameterCategory":1,"la1":30.2991,"la2":30.254,"lo1":-89.0895,"lo2":-89.0444,"dy":0.0017,"dx":0.0017,"nx":28,"ny":28,"refTime":"2023-10-06T03:00:00:Z","depth":0,"parameterNumber":2,"parameterNumberName":"U-component_of_WINDS"},"data":[0,0,0,0,0,0,0,0,0,0,0,0,0,0,0,0,0,0,0,0,0,0,0,0,0,0,0,0,0,0,0,0,0,0,0,0,0,0,0,0,0,0,0,0,0,0,0,0,0,0,0,0,0,0,0,0,0,0,-0.0006,-0.0005,0,0.0127,0.0128,0.013,0.0214,0.0214,0.0215,0.0215,0.0357,0.0361,0.0364,0,0,0,0,0,0,0,0,0,0,0,0,0,-0.0182,-0.0179,-0.0006,-0.0005,-0.0003,0.0126,0.0128,0.013,0.0214,0.0214,0.0215,0.0215,0.0356,0.036,0.0364,0,0,0,0,0,0,0,0,0,0,0,0,0,-0.0083,-0.0178,-0.0007,0.0054,0.0061,0.0126,0.0128,0.0131,0.0213,0.0214,0.0215,0.0216,0.0355,0.036,0.0365,0.0382,0,0,0.038,0.0382,0,0,0,0,0,0,0,0,-0.0089,-0.0076,0.0044,0.005,0.0058,0.0154,0.0119,0.0215,0.0213,0.0156,0.0215,0.0216,0.029,0.03,0.0324,0.0389,0.0395,0.0381,0.0384,0.0386,0.0387,0,0,0,0,0,0,0,-0.0096,-0.0082,0.0047,0.0045,0.0054,0.0077,0.0091,0.0137,0.0217,0.0161,0.0167,0.0181,0.0294,0.0319,0.0328,0.0397,0.0381,0.0385,0.0388,0.039,0.0483,0.0482,0,0,0,0,0,0,-0.0113,-0.0088,0.0042,0.005,-0.0015,0.0079,0.0096,0.0123,0.0217,0.0232,0.0181,0.0185,0.031,0.0322,0.0333,0.0359,0.0386,0.0391,0.0394,0.0483,0.0482,0.0482,0,0,0,0,0,0,-0.0117,-0.0102,0.0037,-0.0017,0.0002,0.0081,0.0111,0.0125,0.015,0.0232,0.0247,0.0191,0.0311,0.0326,0.0369,0.0365,0.0393,0.0397,0.0484,0.0483,0.0482,0.0411,0,0,0,0,0,0,-0.0122,-0.0104,-0.0098,-0.0018,0.0005,0.0068,0.0111,0.0127,0.0157,0.0164,0.0246,0.026,0.0312,0.0361,0.0374,0.0373,0.0401,0.0485,0.0483,0.0482,0.0414,0.0408,0.0403,0,0,0,0,0,-0.0129,-0.0122,-0.0098,-0.0083,0.0014,0.0068,0.0081,0.0139,0.0157,0.0164,0.0217,0.0257,0.0363,0.0364,0.038,0.038,0.0485,0.0484,0.0483,0.0417,0.0409,0.0403,0,0,0,0,0,0,-0.0202,-0.011,-0.0083,-0.005,-0.0,0.0082,0.0093,0.013,0.0178,0.0182,0.0255,0.0272,0.0308,0.0349,0.0348,0.0402,0.0429,0.0431,0.0374,0.0367,0.0362,0.0351,0.0406,0,0,0,0,0,-0.0215,-0.0181,-0.0101,-0.008,-0.0056,0.0014,0.004,0.008,0.0136,0.0158,0.0214,0.0269,0.0314,0.0343,0.039,0.042,0.044,0.0428,0.0422,0.0417,0.0418,0.0438,0.0434,0.0478,0.0478,0.0478,0,0,-0.0241,-0.0186,-0.0168,-0.0093,-0.005,-0.0014,0.0031,0.0067,0.0095,0.0165,0.0208,0.0251,0.0316,0.0353,0.0372,0.0388,0.041,0.0416,0.0411,0.0415,0.0436,0.0432,0.0428,0.0477,0.0477,0.0477,0,0,-0.0269,-0.0224,-0.0202,-0.016,-0.0095,-0.0048,-0.0043,0.0033,0.0064,0.0107,0.016,0.0195,0.0272,0.0317,0.0349,0.0337,0.0376,0.035,0.0321,0.0339,0.0335,0.0332,0.0328,0.0326,0.0351,0.0351,0.0351,0,-0.0308,-0.0254,-0.0194,-0.0162,-0.013,-0.0068,-0.0044,-0.0005,0.0073,0.0094,0.011,0.0207,0.0256,0.0304,0.03,0.0325,0.0334,0.0342,0.033,0.0328,0.0327,0.0324,0.0322,0.0347,0.0347,0.0348,0.0348,0,-0.0305,-0.0268,-0.0257,-0.0187,-0.0154,-0.0126,-0.006,-0.0034,0.0004,0.0049,0.0093,0.0153,0.0213,0.0227,0.0265,0.028,0.0288,0.0316,0.0345,0.0318,0.0316,0.0316,0.0342,0.0343,0.0344,0.0345,0,0,-0.0374,-0.0273,-0.027,-0.0237,-0.0161,-0.0131,-0.0099,-0.0043,-0.0022,0.003,0.0059,0.0121,0.0148,0.0184,0.0228,0.0243,0.023,0.027,0.0273,0.0261,0.0251,0.0229,0.0227,0.0256,0.0256,0.0256,0.0246,0,-0.0391,-0.0334,-0.028,-0.0241,-0.0206,-0.0147,-0.0119,-0.0069,-0.0026,0.0011,0.006,0.0103,0.0134,0.0157,0.0175,0.0227,0.0229,0.0229,0.0285,0.0286,0.0267,0.0226,0.0204,0.0191,0.0245,0.0245,0.0245,0,-0.0402,-0.0356,-0.0315,-0.0244,-0.0227,-0.0203,-0.0148,-0.0113,-0.0055,-0.0024,0.0016,0.0061,0.0098,0.0122,0.0176,0.0174,0.0201,0.023,0.0231,0.0239,0.0264,0.0234,0.0189,0.0187,0.0245,0.0245,0.0245,0,-0.0457,-0.0385,-0.0351,-0.0325,-0.024,-0.0225,-0.0189,-0.013,-0.01,-0.0051,-0.003,0.0023,0.0053,0.0094,0.0153,0.0165,0.02,0.0229,0.0228,0.0226,0.0233,0.0232,0.0192,0.0249,0.0249,0.0249,0.0249,0,-0.0481,-0.0458,-0.0375,-0.0354,-0.0326,-0.0263,-0.0237,-0.0195,-0.0143,-0.0112,-0.0056,-0.0028,0.0048,0.0086,0.0133,0.017,0.0183,0.0209,0.0222,0.0205,0.0201,0.0223,0.0226,0.0249,0.0249,0.0249,0.0249,0,-0.0538,-0.0481,-0.044,-0.0364,-0.0345,-0.0327,-0.0261,-0.0238,-0.0193,-0.0154,-0.0141,-0.0069,-0.0021,0.0041,0.0109,0.014,0.0172,0.0191,0.0152,0.0159,0.0154,0.0153,0.0127,0.0127,0.0182,0.0182,0.0181,0,-0.0557,-0.0538,-0.0461,-0.0437,-0.0403,-0.0365,-0.0335,-0.0272,-0.0243,-0.0175,-0.016,-0.0109,-0.0064,0.0009,0.0069,0.0121,0.0142,0.0129,0.0151,0.0133,0.0142,0.0141,0.0143,0.0124,0.0123,0.0122,0.0122,0,-0.0596,-0.0569,-0.0529,-0.0479,-0.0445,-0.0402,-0.0356,-0.0339,-0.0266,-0.0235,-0.0187,-0.0153,-0.0085,-0.0034,0.0025,0.0065,0.0106,0.0114,0.0117,0.01,0.0076,0.0089,0.0137,0.0115,0.0116,0.0116,0.0116,0.0117,-0.0633,-0.0614,-0.0558,-0.0514,-0.0474,-0.0433,-0.0407,-0.036,-0.0319,-0.026,-0.0225,-0.0179,-0.012,-0.0036,0.0002,0.004,0.0056,0.006,0.0061,0.0061,0.0055,0.0069,0.0052,0.0052,0.0052,0.0052,0.0053,0,-0.067,-0.0631,-0.0592,-0.0531,-0.0497,-0.0464,-0.0411,-0.0385,-0.0345,-0.0295,-0.0253,-0.0198,-0.0148,-0.0086,-0.0032,-0.0013,0.0007,-0.0001,-0.0001,0.0007,0.0038,0.003,-0.0018,-0.0018,-0.0018,-0.0018,-0.0018,-0.0018,-0.0685,-0.0651,-0.0618,-0.0562,-0.0522,-0.0478,-0.0451,-0.0412,-0.0372,-0.0314,-0.0274,-0.0234,-0.0178,-0.012,-0.0073,-0.0056,-0.0038,-0.0052,-0.0029,-0.0001,0.0005,0.0011,0.0004,-0.0049,-0.0049,-0.0063,-0.0063,-0.0063]},{"header":{"parameterUnit":"m.s-1","parameterCategory":1,"la1":30.2991,"la2":30.254,"lo1":-89.0895,"lo2":-89.0444,"dy":0.0017,"dx":0.0017,"nx":28,"ny":28,"refTime":"2023-10-06T03:00:00:Z","depth":0,"parameterNumber":3,"parameterNumberName":"V-component_of_WINDS"},"data":[0,0,0,0,0,0,0,0,0,0,0,0,0,0,0,0,0,0,0,0,0,0,0,0,0,0,0,0,0,0,0,0,0,0,0,0,0,0,0,0,0,0,0,0,0,0,0,0,0,0,0,0,0,0,0,0,0,0,0.5793,0.5793,0,0.5721,0.572,0.5719,0.5687,0.5687,0.5687,0.5687,0.5608,0.5606,0.5604,0,0,0,0,0,0,0,0,0,0,0,0,0,0.5898,0.5897,0.5793,0.5793,0.5792,0.5721,0.572,0.5719,0.5687,0.5687,0.5687,0.5687,0.5609,0.5606,0.5603,0,0,0,0,0,0,0,0,0,0,0,0,0,0.5842,0.5896,0.5794,0.5767,0.5764,0.5721,0.572,0.5719,0.5686,0.5687,0.5687,0.5687,0.5609,0.5606,0.5603,0.558,0,0,0.5593,0.5592,0,0,0,0,0,0,0,0,0.5845,0.5838,0.5772,0.5769,0.5765,0.5713,0.5728,0.5672,0.5686,0.5716,0.5687,0.5687,0.5642,0.5636,0.5622,0.5576,0.5573,0.5593,0.5591,0.5589,0.5588,0,0,0,0,0,0,0,0.5849,0.5841,0.5765,0.5771,0.5767,0.5757,0.5749,0.5717,0.5679,0.5713,0.5711,0.5703,0.5641,0.5626,0.562,0.5571,0.5593,0.559,0.5588,0.5587,0.5499,0.5499,0,0,0,0,0,0,0.5858,0.5845,0.5767,0.5762,0.5807,0.5755,0.5746,0.573,0.5679,0.5672,0.5703,0.5702,0.5631,0.5624,0.5617,0.5585,0.5589,0.5586,0.5584,0.55,0.5499,0.5499,0,0,0,0,0,0,0.5861,0.5852,0.577,0.5803,0.5792,0.5753,0.5735,0.5728,0.5713,0.5671,0.5664,0.5695,0.5631,0.5622,0.5589,0.5582,0.5585,0.5582,0.55,0.5499,0.5499,0.5521,0,0,0,0,0,0,0.5864,0.5853,0.5845,0.5803,0.579,0.5745,0.5734,0.5726,0.5708,0.5706,0.5662,0.5655,0.563,0.5594,0.5586,0.5577,0.5579,0.55,0.55,0.5499,0.5521,0.5521,0.5522,0,0,0,0,0,0.5868,0.5854,0.5845,0.5835,0.578,0.5744,0.5737,0.571,0.5708,0.5698,0.5671,0.5656,0.5584,0.5591,0.5581,0.5572,0.5501,0.55,0.5499,0.5521,0.5521,0.5522,0,0,0,0,0,0,0.5895,0.5848,0.5837,0.581,0.5781,0.5739,0.5727,0.5712,0.5683,0.5682,0.5649,0.5639,0.5608,0.5587,0.5595,0.5545,0.5541,0.5538,0.556,0.5561,0.5561,0.5567,0.5576,0,0,0,0,0,0.5898,0.5875,0.5834,0.5813,0.58,0.5766,0.5749,0.5731,0.57,0.5687,0.5658,0.5627,0.5597,0.5578,0.5548,0.5518,0.5506,0.5506,0.5507,0.5507,0.5505,0.5485,0.5483,0.5496,0.5496,0.5496,0,0,0.5903,0.5875,0.5862,0.5818,0.5794,0.5769,0.5756,0.573,0.571,0.5683,0.565,0.5627,0.559,0.5558,0.5542,0.5538,0.5499,0.5506,0.5507,0.5504,0.5484,0.5483,0.5481,0.5496,0.5496,0.5496,0,0,0.59,0.5877,0.5857,0.5833,0.5797,0.5774,0.5769,0.5728,0.5712,0.5679,0.5657,0.5632,0.5582,0.5555,0.5536,0.552,0.5504,0.5511,0.5514,0.5495,0.5494,0.5493,0.5485,0.5483,0.5509,0.551,0.551,0,0.5911,0.5874,0.5848,0.5823,0.5803,0.5778,0.5755,0.5733,0.5688,0.5674,0.5672,0.5607,0.558,0.554,0.5536,0.5521,0.5513,0.5516,0.5496,0.5495,0.5493,0.5486,0.5483,0.551,0.551,0.551,0.551,0,0.5888,0.5863,0.585,0.5809,0.5787,0.5764,0.5732,0.5713,0.5696,0.5673,0.5638,0.5604,0.5567,0.5556,0.5539,0.5513,0.5511,0.5503,0.5498,0.5494,0.5486,0.5483,0.5512,0.5512,0.5511,0.5511,0,0,0.5901,0.5845,0.584,0.582,0.5778,0.5756,0.573,0.5694,0.5678,0.5647,0.5623,0.558,0.5572,0.5549,0.5529,0.5512,0.5499,0.5505,0.5504,0.5504,0.5465,0.5471,0.5469,0.5489,0.5488,0.5488,0.5468,0,0.5891,0.5846,0.582,0.5784,0.5758,0.5733,0.571,0.568,0.5657,0.563,0.5604,0.5574,0.5566,0.5551,0.5534,0.5505,0.5491,0.5506,0.5464,0.5463,0.5473,0.5465,0.5471,0.5454,0.5465,0.5464,0.5464,0,0.5874,0.5845,0.5807,0.5765,0.5753,0.5733,0.5697,0.5673,0.5637,0.5621,0.5595,0.5575,0.5544,0.5542,0.5497,0.5508,0.5489,0.5471,0.547,0.5464,0.5463,0.5457,0.5449,0.5445,0.5459,0.546,0.546,0,0.5885,0.5836,0.5806,0.579,0.5742,0.5728,0.5706,0.5671,0.565,0.5618,0.5604,0.5568,0.5548,0.5519,0.5489,0.549,0.5446,0.5442,0.543,0.5431,0.5421,0.5422,0.5408,0.5411,0.5411,0.5411,0.5411,0,0.5876,0.5854,0.5811,0.5792,0.5765,0.5734,0.5707,0.5684,0.5652,0.5627,0.5603,0.5579,0.5541,0.5512,0.5487,0.5453,0.5444,0.5429,0.5422,0.543,0.5432,0.5416,0.5416,0.5411,0.5411,0.5411,0.5411,0,0.5884,0.5855,0.5821,0.5777,0.5765,0.5747,0.5709,0.5688,0.5664,0.5632,0.5622,0.5583,0.5547,0.5514,0.5466,0.545,0.5414,0.5407,0.5426,0.5423,0.5412,0.5413,0.5386,0.538,0.5389,0.5389,0.5389,0,0.588,0.5862,0.5817,0.5799,0.5778,0.5749,0.5728,0.5696,0.5675,0.5632,0.5616,0.5579,0.5547,0.549,0.5456,0.5418,0.5409,0.5402,0.5403,0.5411,0.5407,0.5408,0.5404,0.5402,0.5402,0.5403,0.5403,0,0.5876,0.5862,0.5833,0.5798,0.5773,0.5744,0.5714,0.57,0.5662,0.5639,0.5602,0.5578,0.5529,0.5491,0.5449,0.5424,0.5406,0.5403,0.5397,0.5405,0.5416,0.5408,0.5426,0.5403,0.5403,0.5403,0.5403,0.5403,0.5876,0.5858,0.5823,0.5791,0.5765,0.5737,0.5715,0.5687,0.5657,0.5615,0.5598,0.556,0.5522,0.5465,0.544,0.5408,0.5405,0.5398,0.5396,0.5394,0.5395,0.5423,0.5401,0.5401,0.5401,0.5401,0.5401,0,0.5869,0.5845,0.5815,0.5774,0.5748,0.5735,0.57,0.5678,0.5646,0.5613,0.5582,0.5539,0.5501,0.5464,0.5424,0.5405,0.5396,0.5396,0.5396,0.539,0.5401,0.5409,0.5404,0.5404,0.5404,0.5404,0.5404,0.5404,0.5862,0.583,0.5811,0.5765,0.574,0.5704,0.5685,0.5658,0.5631,0.5584,0.5554,0.553,0.5494,0.545,0.5414,0.5404,0.539,0.5392,0.5379,0.539,0.539,0.539,0.5397,0.5389,0.5389,0.537,0.5369,0.5369]}]]